Weather in Khonch Nur

Russia / Republic of Kalmykia     48°11′13″N   45°01′12″E
temp.,
°C
wind,
m/s
gust,
m/s
humid.,
%
clouds,
%
prec.,
mm/h
press.,
hPa
HPBL,
m
16 may, sun
sun1600:00+19sse513376 0.0 1014189
03:00+17sse4841100 0.0 1015102
06:00+19se375448 0.0 1014124
09:00+26se5735100 0.0 1014512
12:00+32se711215 0.0 10132690
15:00+33se810186 0.0 10123480
18:00+29se6123148 0.0 1011303
21:00+23ese615275 0.0 1012271
17 may, mon
mon1700:00+19ese513323 0.0 1012190
03:00+18e513325 0.0 1011190
06:00+19e513425 0.0 1011219
09:00+27ese9142876 0.0 1011854
12:00+31se101317100 0.0 10112848
15:00+32ese8111756 0.0 10103276
18:00+28ese7132548 0.0 1009379
21:00+22ese592945 0.0 1011120
18 may, tue
tue1800:00+20e510300 0.0 1010146
03:00+19e5142818 0.0 1008207
06:00+19e51539100 0.0 1008298
09:00+28se9142612 0.0 10081003
12:00+32se1115175 0.0 10072607
15:00+30sse13162898 0.0 10081846
18:00+26ese41231100 0.0 1007296
21:00+23se472799 0.0 1008104
19 may, wed
wed1900:00+21s333284 0.0 100830
03:00+18wsw2246100 0.0 100814
06:00+19nnw3572100 0.0 1008165
09:00+24nw3251100 0.0 1008614
12:00+25wnw764849 0.0 10091563
15:00+25w984491 0.0 10102058
18:00+19wsw101165100 0.0 1013862
21:00+17wsw41057100 0.0 1014521
20 may, thu
thu2000:00+14sw39815 0.0 1015266
03:00+13wsw410834 0.0 1016309
06:00+14wsw5108093 0.0 1017494
09:00+20wsw68555 0.0 10171277
12:00+23wsw674041 0.0 10172415
15:00+22w574492 0.0 1017849
18:00+22wnw454699 0.0 1017688
21:00+17n2263100 0.0 101911